Tracking 33446 objects as of 10-Mar-2026
HD Live streaming from Space Station
objects crossing your sky now

HULIANWANG DIGUI-95

Track HULIANWANG DIGUI-95 now!
10-day predictions


NORAD ID: 66003
Int'l Code: 2025-231J
Perigee: 1,156.0 km
Apogee: 1,156.9 km
Inclination: 50.0 °
Period: 108.3 minutes
Semi major axis: 7527 km
RCS: Unknown
Launch date: October 16, 2025
Source: People's Republic of China (PRC)
Launch site: Wenchang Satellite Launch Center (WSC)
Your satellite tracking list
Your tracking list is empty




NASA's NSSDC Master Catalog

Two Line Element Set (TLE):
1 66003U 25231J   26069.17088696 -.00000069  00000-0  11899-3 0  9993
2 66003  50.0027 170.5302 0000633 208.7310 151.3528 13.29326209 19723
Source of the keplerian elements: AFSPC